Location: Knowlton
(51.2333°N, 1.2667°E)
Time: 03:12:16
(UTC+00:00)

Cosmos 1743 Rocket - Pass Details

Date: 18 April 2021
Orbit: 603 x 634 km, 82.6° (Epoch: 06 May)

Event Time Altitude Azimuth Distance (km) Brightness Sun altitude
Rises 22:14:55 0° 350° (N) 2,886 8.2 -24.0°
Reaches altitude 10° 22:17:09 10° 351° (N) 1,973 7.1 -24.2°
Enters shadow 22:21:17 77° 32° (NNE) 629 3.5 -24.4°
